Location: Beddau
(51.5575°N, 3.3561°W)
Time: 17:50:06
(UTC+00:00)

ATLAS CENTAUR R/B - Pass Details

Date: 03 March 2021
Orbit: 475 x 670 km, 64.7° (Epoch: 30 March)

Event Time Altitude Azimuth Distance (km) Brightness Sun altitude
Rises 19:56:48 0° 220° (SW) 2,518 5.1 -19.2°
Reaches altitude 10° 19:58:55 10° 221° (SW) 1,641 4.1 -19.5°
Maximum altitude 20:02:33 89° 122° (ESE) 485 0.9 -20.1°
Enters shadow 20:03:16 57° 43° (NE) 574 1.2 -20.2°
